Vertical_Velocity
5 14 2 34 7 17 2 -11 -5 2 9 7 -1 0 -2 2 1 -0 -1 -1 -4 2 -0 2 0 2 -3 -2 -1 1 -1 -2 -1 1 3 -3 -2 1 1 0 0 -2 2
7 5 7 -13 44 -3 7 23 -7 -5 0 10 8 4 4 -2 7 7 -1 4 2 2 1 4 4 1 0 4 -1 -2 -0 0 -0 0 -1 -1 2 3 -2 0 -2 -3 -1
-3 -6 -4 -28 -9 -2 1 1 3 -4 4 21 3 15 -2 3 3 3 -2 4 -0 6 -1 13 8 5 5 5 3 8 12 8 3 -0 2 0 2 -7 3 -5 -3 -1 -2
-1 0 6 2 1 3 -38 -29 -9 -24 -11 -22 4 -2 16 8 -5 11 3 2 -0 -2 12 -18 -8 9 2 6 8 3 12 7 6 7 0 -3 -2 -3 1 -4 -6 -2 1
-2 -5 -1 2 -2 2 -8 6 8 5 2 -16 -12 -14 -27 -15 -2 0 6 -15 -4 3 4 2 -1 6 -4 -3 -1 31 7 1 2 -1 -3 4 -1 -4 -2 -2 8 -3 -3
-3 4 2 3 -3 11 -7 -2 6 -0 6 9 -3 -9 -0 -4 8 -1 -10 -3 -3 -5 0 -2 6 -3 -4 -5 -11 -27 -3 -16 -13 -2 -8 1 -0 -3 -1 3 -2 0 9
1 7 2 6 2 -2 3 7 5 -3 7 1 7 -3 4 16 2 -9 -1 0 1 -3 -4 0 2 4 1 0 4 -9 -18 -9 -9 -19 -8 -8 -5 -6 -5 -6 0 -3 3
8 7 3 5 2 3 5 6 4 1 2 4 3 1 5 0 2 2 -2 2 1 0 1 -3 3 3 4 4 -5 5 2 -3 11 6 9 5 4 8 4 0 -2 -2 -2
-1 3 0 0 0 -1 -0 4 -0 -3 -1 1 0 2 7 3 4 10 1 3 3 0 0 2 -0 -1 1 8 2 5 5 2 -5 2 -4 -3 3 -5 2 4 3 0 -1
-2 -2 -3 -0 1 2 1 -0 1 1 1 3 3 1 -2 1 0 -2 -3 -1 -2 -0 -4 -2 4 -1 -1 1 -2 -2 -4 -0 1 1 -5 0 0 2 -0 -5 -1 0 -0
1 2 -1 2 -2 0 -1 1 -1 -1 1 0 1 2 1 1 0 -0 3 3 0 -1 0 2 3 -0 -0 -2 1 0 -2 -4 -5 0 -3 1 -3 2 -2 1 5 0 -2
3 5 5 0 -0 -2 0 -0 0 -1 0 2 -1 -2 -1 1 -1 -1 2 0 2 -0 2 -1 2 1 5 2 4 6 3 3 -0 -2 -1 -0 4 -2 1 0 1 -3 -3
-1 1 -1 1 4 1 1 4 6 6 6 5 5 2 -1 -1 -3 2 -1 2 1 5 1 2 0 2 1 0 -1 1 -1 -0 1 -1 4 -1 -2 2 1 -1 0 1 2
0 -2 -6 -5 -4 -2 -2 -2 -5 -1 2 3 1 5 2 1 0 1 -1 1 -0 -0 1 1 -0 -2 -0 1 2 2 -2 -3 -1 0 -0 -2 0 -2 -1 1 0 3 -1
-0 1 3 0 -4 -5 -1 0 3 2 -3 -1 0 1 -1 5 6 2 4 2 2 2 1 2 -1 0 -2 -3 0 2 1 1 -0 -2 1 -0 -2 0 1 -2 -1 0 -1
1 0 -3 -4 4 6 -3 -5 1 2 0 -1 2 -0 2 3 3 3 3 0 1 2 4 1 -0 2 -0 -1 0 -2 1 -1 -0 -4 2 2 -1 -2 -2 0 -0 0 0
-4 -4 -3 -2 -1 -7 -7 6 3 -2 -3 -3 -1 -0 1 -1 -3 -3 2 0 -0 3 0 -0 4 3 1 0 -3 1 -2 -1 -2 -1 -2 1 2 -1 1 -1 -0 4 1
-0 -1 0 -2 1 2 2 -7 -9 -4 3 2 -3 -4 -5 -2 -0 3 4 3 3 0 -2 -4 0 -3 -3 1 2 1 4 -2 1 4 0 2 -0 -4 -3 -0 2 -3 -4
-1 0 4 3 -3 -4 1 3 2 -0 -4 -11 -10 1 5 -1 -3 0 -1 2 0 0 3 4 1 3 -1 -1 1 0 -1 -5 3 -1 -3 1 -1 4 -3 -4 -4 -0 1
-0 -3 -5 -8 -5 -3 4 1 -2 -3 3 0 2 -3 -3 4 -1 1 2 4 7 2 4 2 1 -0 2 1 2 -1 1 -3 3 -0 -4 -2 -1 -2 -1 1 -1 1 1
-10 -7 -2 2 -1 -4 -5 -4 -1 0 2 4 5 3 -1 -0 5 2 3 0 4 4 2 2 5 2 5 2 -2 2 -4 -1 0 -4 -4 -2 -4 -0 2 2 2 -2 -1
-8 -5 -5 -5 -3 1 4 -2 -1 6 -2 1 0 -2 2 3 3 4 -1 1 -2 2 1 2 1 -2 -0 -2 1 1 -3 -3 -4 -3 -2 1 1 -0 -2 -1 -1 5 -2
3 2 1 -5 -4 -3 6 4 -5 1 1 -0 -2 -0 -3 2 1 -2 1 1 -0 1 -0 -2 -1 -1 -3 -0 -1 1 -3 -1 -1 -1 2 1 1 -0 1 -0 -1 1 -0
-5 1 1 1 -5 1 -3 -0 -2 9 1 2 2 4 -4 -0 1 7 2 5 -4 -3 -1 0 -4 -1 -0 -1 -0 -1 -1 -0 0 -0 1 1 3 1 2 0 -1 -0 0
0 1 -2 -1 -7 0 -3 -2 1 2 2 4 4 5 -2 4 3 4 1 -1 6 3 -2 -3 2 -1 -3 -2 3 0 -4 -2 5 1 0 1 -1 -1 -1 -1 -2 -1 0
-2 -6 -3 -2 -4 -2 -6 -3 6 11 4 1 4 2 -1 3 2 3 5 4 5 4 2 10 10 5 2 -3 -0 1 1 1 1 -3 -2 0 -0 -0 -0 -0 -1 -0 1
Height
1461 1465 1468 1472 1478 1483 1485 1490 1497 1502 1505 1508 1511 1515 1517 1519 1522 1527 1529 1532 1534 1536 1539 1540 1541 1542 1544 1544 1546 1547 1548 1549 1550 1552 1553 1551 1551 1549 1548 1548 1549 1548 1547
1458 1461 1466 1467 1470 1478 1486 1492 1496 1499 1500 1506 1507 1512 1515 1516 1520 1524 1527 1529 1531 1534 1536 1538 1539 1539 1540 1541 1542 1544 1545 1546 1547 1550 1550 1551 1551 1548 1546 1546 1546 1546 1547
1460 1463 1467 1470 1477 1474 1479 1488 1491 1496 1497 1499 1504 1506 1512 1516 1517 1520 1521 1524 1526 1528 1532 1534 1534 1534 1536 1537 1538 1540 1541 1543 1544 1546 1547 1548 1548 1547 1545 1543 1543 1543 1543
1461 1466 1469 1472 1471 1476 1481 1488 1490 1493 1494 1498 1501 1510 1513 1511 1515 1516 1515 1517 1520 1525 1526 1526 1528 1530 1530 1531 1532 1534 1537 1538 1541 1542 1543 1544 1545 1545 1544 1540 1539 1540 1540
1463 1467 1471 1472 1475 1478 1483 1486 1489 1487 1493 1498 1506 1506 1505 1506 1508 1510 1508 1512 1516 1519 1518 1518 1522 1523 1525 1525 1521 1520 1525 1533 1536 1536 1539 1541 1538 1540 1542 1539 1538 1535 1535
1462 1466 1468 1470 1473 1476 1479 1481 1483 1483 1490 1496 1496 1498 1501 1502 1503 1505 1507 1509 1510 1511 1510 1513 1514 1515 1517 1521 1523 1523 1528 1529 1530 1534 1536 1536 1536 1537 1538 1535 1534 1534 1533
1464 1466 1469 1474 1473 1477 1479 1479 1479 1482 1485 1489 1494 1495 1495 1497 1496 1496 1501 1501 1502 1504 1505 1506 1508 1509 1510 1514 1517 1518 1520 1524 1525 1527 1528 1530 1531 1529 1530 1531 1531 1528 1528
1462 1463 1467 1470 1472 1475 1475 1477 1477 1480 1485 1485 1488 1490 1491 1490 1494 1492 1494 1495 1497 1498 1499 1501 1506 1506 1508 1511 1513 1515 1517 1522 1522 1521 1522 1523 1526 1526 1523 1523 1524 1524 1524
1457 1462 1465 1468 1471 1473 1474 1475 1475 1480 1482 1483 1485 1486 1486 1487 1488 1487 1489 1490 1492 1493 1495 1499 1502 1504 1507 1508 1508 1510 1512 1515 1516 1517 1518 1520 1520 1520 1521 1519 1518 1519 1521
1461 1465 1468 1470 1470 1471 1470 1471 1473 1476 1478 1479 1480 1479 1480 1481 1482 1483 1485 1485 1487 1489 1492 1495 1499 1502 1503 1506 1504 1507 1507 1510 1512 1513 1514 1515 1515 1514 1514 1514 1514 1514 1515
1472 1471 1470 1469 1469 1469 1468 1468 1469 1471 1474 1474 1474 1474 1475 1477 1478 1479 1479 1480 1481 1484 1488 1492 1495 1497 1500 1501 1502 1503 1505 1506 1509 1509 1509 1509 1509 1509 1509 1508 1509 1507 1507
1468 1468 1468 1466 1468 1468 1468 1468 1468 1468 1470 1469 1469 1470 1470 1472 1472 1475 1475 1475 1475 1480 1484 1489 1491 1493 1495 1496 1497 1499 1500 1501 1502 1503 1503 1503 1504 1503 1504 1503 1504 1503 1503
1472 1470 1468 1469 1470 1472 1472 1470 1469 1468 1466 1465 1466 1465 1466 1468 1469 1470 1472 1471 1473 1476 1481 1483 1486 1489 1491 1493 1494 1495 1496 1497 1497 1497 1497 1497 1498 1498 1498 1498 1498 1497 1497
1473 1474 1475 1474 1474 1472 1470 1469 1466 1464 1461 1463 1464 1464 1464 1465 1465 1466 1467 1468 1470 1473 1477 1479 1481 1485 1486 1488 1490 1489 1490 1492 1491 1491 1491 1492 1492 1492 1493 1493 1493 1492 1491
1473 1474 1476 1476 1474 1470 1469 1467 1465 1462 1461 1462 1462 1460 1462 1462 1461 1461 1463 1465 1467 1468 1473 1474 1478 1479 1480 1483 1484 1485 1486 1485 1485 1485 1487 1487 1487 1487 1487 1487 1488 1487 1488
1479 1479 1477 1471 1469 1469 1466 1462 1460 1460 1459 1458 1458 1457 1456 1457 1459 1460 1462 1462 1465 1466 1467 1469 1473 1474 1475 1479 1478 1480 1480 1480 1480 1481 1483 1482 1481 1481 1483 1483 1483 1483 1482
1479 1476 1475 1473 1471 1467 1463 1459 1459 1457 1456 1455 1454 1453 1452 1454 1455 1457 1456 1456 1458 1460 1461 1465 1467 1469 1470 1471 1474 1475 1474 1475 1476 1475 1477 1477 1476 1477 1478 1479 1479 1479 1478
1478 1475 1472 1469 1466 1463 1461 1456 1453 1451 1449 1447 1446 1446 1447 1448 1449 1450 1450 1451 1453 1454 1455 1458 1462 1462 1464 1465 1468 1469 1469 1472 1472 1471 1470 1472 1472 1473 1474 1476 1475 1475 1477
1473 1469 1466 1463 1458 1455 1453 1450 1448 1446 1443 1441 1440 1440 1439 1438 1440 1441 1443 1444 1446 1447 1450 1452 1455 1455 1458 1461 1463 1464 1464 1467 1466 1463 1464 1468 1469 1470 1470 1471 1474 1475 1476
1467 1462 1458 1455 1452 1448 1445 1442 1439 1436 1434 1434 1431 1429 1429 1429 1429 1431 1434 1436 1437 1440 1444 1446 1448 1451 1454 1455 1457 1458 1462 1460 1461 1458 1461 1464 1465 1467 1469 1470 1471 1473 1473
1460 1456 1452 1449 1445 1442 1438 1433 1429 1425 1424 1424 1421 1419 1418 1417 1417 1420 1424 1427 1431 1433 1435 1441 1443 1445 1448 1450 1451 1453 1456 1457 1455 1456 1458 1460 1462 1465 1467 1467 1468 1469 1470
1455 1451 1447 1443 1439 1435 1430 1424 1420 1419 1415 1412 1410 1409 1408 1407 1407 1407 1411 1416 1422 1426 1429 1433 1436 1439 1442 1444 1446 1447 1450 1453 1453 1455 1457 1458 1459 1461 1463 1464 1466 1465 1467
1450 1444 1439 1432 1428 1425 1422 1416 1410 1410 1406 1402 1400 1399 1399 1398 1398 1399 1401 1407 1412 1417 1421 1425 1429 1433 1436 1439 1441 1444 1446 1449 1450 1451 1453 1454 1456 1457 1459 1460 1462 1464 1465
1442 1437 1431 1424 1417 1413 1410 1404 1398 1398 1396 1392 1390 1389 1389 1389 1388 1391 1394 1398 1402 1408 1413 1418 1422 1427 1430 1433 1437 1439 1441 1444 1445 1446 1448 1450 1452 1454 1456 1457 1459 1461 1463
1436 1430 1424 1418 1412 1404 1396 1389 1385 1384 1383 1382 1380 1379 1379 1379 1380 1383 1385 1389 1395 1399 1404 1409 1415 1419 1423 1426 1430 1432 1435 1438 1440 1441 1444 1446 1448 1450 1452 1454 1456 1458 1460
1432 1426 1420 1412 1405 1398 1388 1380 1377 1375 1375 1373 1372 1371 1371 1371 1373 1376 1379 1383 1389 1394 1400 1406 1410 1413 1417 1420 1423 1425 1429 1432 1434 1435 1439 1442 1444 1446 1448 1450 1452 1455 1457